timestamp,surface_pressure_avg,surface_temp_avg,battery_voltage,lat,long
2020-07-13 00:09:01+00:00,233.4381,16.5,12.81,47.84626,-54.09684
2020-07-13 00:19:01+00:00,235.8414,16.49,12.73,47.84626,-54.09684
2020-07-13 00:29:01+00:00,236.2664,16.49,12.73,47.84626,-54.09684
2020-07-13 00:39:01+00:00,235.4547,16.49,12.73,47.84626,-54.09684
2020-07-13 00:49:01+00:00,236.9831,16.49,12.73,47.84626,-54.09684
2020-07-13 00:59:01+00:00,241.9514,16.49,12.73,47.84626,-54.09684
2020-07-13 01:09:01+00:00,244.0981,16.48,12.73,47.84626,-54.09684
2020-07-13 01:19:01+00:00,243.9998,16.47,12.73,47.84626,-54.09684
2020-07-13 01:29:01+00:00,246.3514,16.45,12.73,47.84626,-54.09684
2020-07-13 01:39:01+00:00,253.1648,16.45,12.73,47.84626,-54.09684
2020-07-13 01:49:01+00:00,256.0814,16.43,12.73,47.84626,-54.09684
2020-07-13 01:59:01+00:00,258.2514,16.41,12.73,47.84626,-54.09684
2020-07-13 02:09:01+00:00,261.0098,16.4,12.73,47.84626,-54.09684
2020-07-13 02:19:01+00:00,266.5497,16.4,12.73,47.84626,-54.09684
2020-07-13 02:29:01+00:00,269.1631,16.4,12.73,47.84626,-54.09684
2020-07-13 02:39:01+00:00,273.028,16.4,12.73,47.84626,-54.09684
2020-07-13 02:49:01+00:00,277.0531,16.4,12.73,47.84626,-54.09684
2020-07-13 02:59:01+00:00,281.0364,16.4,12.73,47.84626,-54.09684
2020-07-13 03:09:01+00:00,283.7631,16.4,12.73,47.84626,-54.09684
2020-07-13 03:19:01+00:00,290.6013,16.4,12.73,47.84626,-54.09684
2020-07-13 03:29:01+00:00,299.8331,16.4,12.73,47.84626,-54.09684
2020-07-13 03:39:01+00:00,304.9847,16.4,12.73,47.84626,-54.09684
2020-07-13 03:49:01+00:00,308.333,16.4,12.73,47.84626,-54.09684
2020-07-13 03:59:01+00:00,314.1563,16.4,12.73,47.84626,-54.09684
2020-07-13 04:09:01+00:00,318.5679,16.39,12.73,47.84626,-54.09684
2020-07-13 04:19:01+00:00,321.4847,16.36,12.73,47.84626,-54.09684
2020-07-13 04:29:01+00:00,320.878,16.35,12.73,47.84626,-54.09684
2020-07-13 04:39:01+00:00,322.4896,16.36,12.73,47.84626,-54.09684
2020-07-13 04:49:01+00:00,321.0347,16.37,12.73,47.84626,-54.09684
2020-07-13 04:59:01+00:00,322.3347,16.38,12.73,47.84626,-54.09684
2020-07-13 05:09:01+00:00,323.9263,16.39,12.73,47.84626,-54.09684
2020-07-13 05:19:01+00:00,325.5197,16.39,12.73,47.84626,-54.09684
2020-07-13 05:29:01+00:00,324.073,16.39,12.73,47.84626,-54.09684
2020-07-13 05:39:01+00:00,322.0797,16.39,12.73,47.84626,-54.09684
2020-07-13 05:49:01+00:00,322.1414,16.39,12.73,47.84626,-54.09684
2020-07-13 05:59:01+00:00,317.9497,16.38,12.73,47.84626,-54.09684
2020-07-13 06:09:01+00:00,310.543,16.3,12.73,47.84626,-54.09684
2020-07-13 06:19:01+00:00,307.8697,16.3,12.65,47.84626,-54.09684
2020-07-13 06:29:01+00:00,309.8529,16.3,12.65,47.84626,-54.09684
2020-07-13 06:39:01+00:00,307.2847,16.3,12.65,47.84626,-54.09684
2020-07-13 06:49:01+00:00,300.9963,16.3,12.65,47.84626,-54.09684
2020-07-13 06:59:01+00:00,302.368,16.3,12.65,47.84626,-54.09684
2020-07-13 07:09:01+00:00,303.9196,16.3,12.65,47.84626,-54.09684
2020-07-13 07:19:01+00:00,298.0714,16.3,12.65,47.84626,-54.09684
2020-07-13 07:29:01+00:00,293.1548,16.3,12.65,47.84626,-54.09684
2020-07-13 07:39:01+00:00,291.7131,16.3,12.65,47.84626,-54.09684
2020-07-13 07:49:01+00:00,286.9114,16.3,12.65,47.84626,-54.09684
2020-07-13 07:59:01+00:00,276.1064,16.3,12.65,47.84626,-54.09684
2020-07-13 08:09:01+00:00,267.6248,16.3,12.65,47.84626,-54.09684
2020-07-13 08:19:01+00:00,266.7814,16.3,12.65,47.84626,-54.09684
2020-07-13 08:29:01+00:00,264.5397,16.3,12.65,47.84626,-54.09684
2020-07-13 08:39:01+00:00,256.413,16.3,12.65,47.84626,-54.09684
2020-07-13 08:49:01+00:00,249.0964,16.3,12.65,47.84626,-54.09684
2020-07-13 08:59:01+00:00,244.7764,16.3,12.65,47.84626,-54.09684
2020-07-13 09:09:01+00:00,241.2748,16.3,12.65,47.84626,-54.09684
2020-07-13 09:19:01+00:00,234.9064,16.3,12.65,47.84626,-54.09684
2020-07-13 09:29:01+00:00,227.6364,16.3,12.65,47.84626,-54.09684
2020-07-13 09:39:01+00:00,223.1964,16.3,12.65,47.84626,-54.09684
2020-07-13 09:49:01+00:00,223.3065,16.3,12.65,47.84626,-54.09684
2020-07-13 09:59:01+00:00,223.3614,16.29,12.65,47.84626,-54.09684
2020-07-13 10:09:01+00:00,219.2248,16.28,12.65,47.84626,-54.09684
2020-07-13 10:19:01+00:00,215.3898,16.28,12.65,47.84626,-54.09684
2020-07-13 10:29:01+00:00,214.0598,16.26,12.65,47.84626,-54.09684
2020-07-13 10:39:01+00:00,212.0665,16.25,12.65,47.84626,-54.09684
2020-07-13 10:49:01+00:00,212.4914,16.22,12.65,47.84626,-54.09684
2020-07-13 10:59:01+00:00,212.5432,16.2,12.65,47.84626,-54.09684
2020-07-13 11:09:01+00:00,212.2781,16.24,12.65,47.84626,-54.09684
2020-07-13 11:19:01+00:00,213.7681,16.26,12.65,47.84626,-54.09684
2020-07-13 11:29:01+00:00,216.7115,16.26,12.65,47.84626,-54.09684
2020-07-13 11:39:01+00:00,217.3414,16.26,12.65,47.84626,-54.09684
2020-07-13 11:49:01+00:00,218.2815,16.28,12.65,47.84626,-54.09684
2020-07-13 11:59:01+00:00,221.9265,16.28,12.65,47.84626,-54.09684
2020-07-13 12:09:01+00:00,225.4981,16.28,12.65,47.84626,-54.09684
2020-07-13 12:19:01+00:00,227.1747,16.3,12.73,47.84626,-54.09684
2020-07-13 12:29:01+00:00,230.5131,16.3,12.73,47.84626,-54.09684
2020-07-13 12:39:01+00:00,234.5898,16.3,12.73,47.84626,-54.09684
2020-07-13 12:49:01+00:00,236.0098,16.3,12.73,47.84626,-54.09684
2020-07-13 12:59:01+00:00,232.9715,16.3,12.73,47.84626,-54.09684
2020-07-13 13:09:01+00:00,237.5398,16.3,12.73,47.84626,-54.09684
2020-07-13 13:19:01+00:00,245.7064,16.3,12.89,47.84626,-54.09684
2020-07-13 13:29:01+00:00,245.6681,16.3,12.89,47.84626,-54.09684
2020-07-13 13:39:01+00:00,240.4414,16.3,12.89,47.84626,-54.09684
2020-07-13 13:49:01+00:00,245.8481,16.3,12.89,47.84626,-54.09684
2020-07-13 13:59:01+00:00,254.4981,16.3,12.89,47.84626,-54.09684
2020-07-13 14:09:01+00:00,252.6315,16.3,12.89,47.84626,-54.09684
2020-07-13 14:19:01+00:00,248.7231,16.3,13.05,47.84626,-54.09684
2020-07-13 14:29:01+00:00,253.9464,16.3,13.05,47.84626,-54.09684
2020-07-13 14:39:01+00:00,261.9348,16.3,13.05,47.84626,-54.09684
2020-07-13 14:49:01+00:00,262.2381,16.3,13.05,47.84626,-54.09684
2020-07-13 14:59:01+00:00,262.918,16.3,13.05,47.84626,-54.09684
2020-07-13 15:09:01+00:00,271.9564,16.3,13.05,47.84626,-54.09684
2020-07-13 15:19:01+00:00,279.9897,16.3,13.37,47.84626,-54.09684
2020-07-13 15:29:01+00:00,279.4497,16.29,13.37,47.84626,-54.09684
2020-07-13 15:39:01+00:00,283.713,16.3,13.37,47.84626,-54.09684
2020-07-13 15:49:01+00:00,293.373,16.3,13.37,47.84626,-54.09684
2020-07-13 15:59:01+00:00,298.493,16.3,13.37,47.84626,-54.09684
2020-07-13 16:09:01+00:00,296.923,16.3,13.37,47.84626,-54.09684
2020-07-13 16:19:01+00:00,300.3781,16.3,13.6,47.84626,-54.09684
2020-07-13 16:29:01+00:00,307.6263,16.3,13.6,47.84626,-54.09684
2020-07-13 16:39:01+00:00,309.0713,16.3,13.6,47.84626,-54.09684
2020-07-13 16:49:01+00:00,306.6531,16.3,13.6,47.84626,-54.09684
2020-07-13 16:59:01+00:00,309.21299999999997,16.3,13.6,47.84626,-54.09684
2020-07-13 17:09:01+00:00,317.0713,16.3,13.6,47.84626,-54.09684
2020-07-13 17:19:01+00:00,318.828,16.3,14.0,47.84626,-54.09684
2020-07-13 17:29:01+00:00,314.273,16.3,14.0,47.84626,-54.09684
2020-07-13 17:39:01+00:00,313.408,16.3,14.0,47.84626,-54.09684
2020-07-13 17:49:01+00:00,317.578,16.3,14.0,47.84626,-54.09684
2020-07-13 17:59:01+00:00,316.3096,16.3,14.0,47.84626,-54.09684
2020-07-13 18:09:01+00:00,312.048,16.33,14.0,47.84626,-54.09684
2020-07-13 18:19:01+00:00,312.0897,16.33,14.08,47.84626,-54.09684
2020-07-13 18:29:01+00:00,313.4397,16.3,14.08,47.84626,-54.09684
2020-07-13 18:39:01+00:00,312.6429,16.3,14.08,47.84626,-54.09684
2020-07-13 18:49:01+00:00,309.8996,16.3,14.08,47.84626,-54.09684
2020-07-13 18:59:01+00:00,311.258,16.3,14.08,47.84626,-54.09684
2020-07-13 19:09:01+00:00,311.043,16.3,14.08,47.84626,-54.09684
2020-07-13 19:19:01+00:00,309.0513,16.29,13.92,47.84626,-54.09684
2020-07-13 19:29:01+00:00,305.2747,16.3,13.92,47.84626,-54.09684
2020-07-13 19:39:01+00:00,303.4529,16.32,13.92,47.84626,-54.09684
2020-07-13 19:49:01+00:00,302.0464,16.36,13.92,47.84626,-54.09684
2020-07-13 19:59:01+00:00,298.913,16.37,13.92,47.84626,-54.09684
2020-07-13 20:09:01+00:00,296.9597,16.39,13.92,47.84626,-54.09684
2020-07-13 20:19:01+00:00,294.4897,16.4,13.84,47.84626,-54.09684
2020-07-13 20:29:01+00:00,290.118,16.4,13.84,47.84626,-54.09684
2020-07-13 20:39:01+00:00,285.0697,16.47,13.84,47.84626,-54.09684
2020-07-13 20:49:01+00:00,280.1597,16.5,13.84,47.84626,-54.09684
2020-07-13 20:59:01+00:00,275.4531,16.5,13.84,47.84626,-54.09684
2020-07-13 21:09:01+00:00,271.4264,16.5,13.84,47.84626,-54.09684
2020-07-13 21:19:01+00:00,265.8581,16.5,13.68,47.84626,-54.09684
2020-07-13 21:29:01+00:00,260.0731,16.53,13.68,47.84626,-54.09684
2020-07-13 21:39:01+00:00,255.0664,16.56,13.68,47.84626,-54.09684
2020-07-13 21:49:01+00:00,252.8981,16.58,13.68,47.84626,-54.09684
2020-07-13 21:59:01+00:00,248.1997,16.57,13.68,47.84626,-54.09684
2020-07-13 22:09:01+00:00,244.9714,16.58,13.68,47.84626,-54.09684
2020-07-13 22:19:01+00:00,241.3747,16.57,13.44,47.84626,-54.09684
2020-07-13 22:29:01+00:00,239.3714,16.59,13.44,47.84626,-54.09684
2020-07-13 22:39:01+00:00,236.8081,16.57,13.44,47.84626,-54.09684
2020-07-13 22:49:01+00:00,235.1697,16.5,13.44,47.84626,-54.09684
2020-07-13 22:59:01+00:00,234.3448,16.5,13.44,47.84626,-54.09684
2020-07-13 23:09:01+00:00,231.5231,16.5,13.44,47.84626,-54.09684
2020-07-13 23:19:01+00:00,230.2498,16.55,13.13,47.84626,-54.09684
2020-07-13 23:29:01+00:00,231.4781,16.5,13.13,47.84626,-54.09684
2020-07-13 23:39:01+00:00,231.5314,16.5,13.13,47.84626,-54.09684
2020-07-13 23:49:01+00:00,228.7598,16.5,13.13,47.84626,-54.09684
2020-07-13 23:59:01+00:00,229.0247,16.5,13.13,47.84626,-54.09684
